Home > Weather > Little Rock > Past weeks

Flag for USA Weather for the Past 2 Weeks in Little Rock, Arkansas, USA

Now
83 °F

Partly sunny.


Feels Like: 81 °F
Forecast: 51 / 80 °F
Wind: 14 mph from Northwest

Location: Adams Field

Current Time: May 4, 2016 at 5:05:40 PM

Latest Report: May 4, 2016 at 3:53 PM


Visibility: 10 mi

Pressure: 29.81 "Hg

Humidity: 31%

Dew Point: 49 °F

Location of Little RockLocation

Historic Weather in Little Rock — Graph

°F

Little Rock Temperature Yesterday

Maximum temperature yesterday: 71 °F (at 3:53 PM)
Minimum temperature yesterday: 55 °F (at 11:53 PM)
Average temperature yesterday: 62 °F

High & Low Weather Summary for the Past Weeks

 TemperatureHumidityPressure
High83 °F (Apr 28, 4:53 PM)97% (Apr 21, 12:53 AM)30.16 "Hg (Apr 21, 12:53 AM)
Low51 °F (May 4, 4:53 AM)30% (Apr 28, 4:53 PM)29.63 "Hg (Apr 27, 4:53 PM)
Average68 °F70%29.92 "Hg
* Reported Apr 19 12:53 PM — May 4 12:53 PM, Little Rock, Weather by CustomWeather, © 2016

Note: Actual official high and low records may vary slightly from our data, if they occured in-between our weather recording intervals... More about our weather records

Advertising

Little Rock Weather History for the Previous 24 Hours

Scroll right to see more
 ConditionsComfort  
Time TempWeatherWind HumidityBarometerVisibility
12:53 PM
Wed, May 4
80 °FPassing clouds.15 mph31%29.86 "Hg10 mi
11:53 AM77 °FPassing clouds.25 mph33%29.88 "Hg10 mi
10:53 AM75 °FSunny.15 mph40%29.90 "Hg10 mi
9:53 AM70 °FSunny.13 mph47%29.93 "Hg10 mi
8:53 AM62 °FPassing clouds.9 mph62%29.94 "Hg10 mi
7:53 AM56 °FPassing clouds.9 mph75%29.95 "Hg10 mi
6:53 AM52 °FPassing clouds.9 mph80%29.95 "Hg10 mi
5:53 AM51 °FPassing clouds.6 mph83%29.95 "Hg10 mi
4:53 AM51 °FClear.6 mph86%29.96 "Hg10 mi
3:53 AM52 °FClear.8 mph83%29.97 "Hg10 mi
2:53 AM53 °FClear.8 mph83%29.98 "Hg10 mi
1:53 AM54 °FClear.8 mph83%29.99 "Hg10 mi
12:53 AM55 °FClear.7 mph80%30.00 "Hg10 mi
11:53 PM
Tue, May 3
55 °FClear.6 mph83%30.00 "Hg10 mi
10:53 PM59 °FClear.3 mph72%30.01 "Hg10 mi
9:53 PM58 °FPassing clouds.5 mph72%30.00 "Hg10 mi
8:53 PM61 °FPassing clouds.No wind65%29.99 "Hg10 mi
7:53 PM66 °FScattered clouds.5 mph42%29.98 "Hg10 mi
6:53 PM68 °FScattered clouds.7 mph39%29.99 "Hg10 mi
5:53 PM70 °FScattered clouds.13 mph38%29.99 "Hg10 mi
Weather by CustomWeather, © 2016

See weather overviewHow to use our weather pages